Regional Weather Roundup
Issued by NWS

Home | Current Version | Previous Version | Graphics & Text | Print | Product List | Glossary On
Versions: 1 2 3 4 5 6 7 8 9 10 11 12 13 14 15 16 17 18 19 20 21 22 23 24 25 26 27 28 29 30 31 32 33 34 35 36 37 38 39 40 41 42 43 44 45 46 47 48 49 50
712
ASUS43 KDTX 202201
RWRMI
MICHIGAN HOURLY REGIONAL WEATHER ROUNDUP
NATIONAL WEATHER SERVICE DETROIT/PONTIAC MI
500 PM EST MON NOV 20 2017

NOTE: "FAIR" INDICATES FEW OR NO CLOUDS BELOW 12,000 FEET WITH NO
SIGNIFICANT WEATHER AND/OR OBSTRUCTION TO VISIBILITY.

MIZ047>049-052>055-059>063-066>070-074>076-081>083-202300-
SOUTHEAST LOWER MICHIGAN

CITY           SKY/WX    TMP DP  RH WIND       PRES   REMARKS
ADRIAN         CLEAR     44  29  55 SW18G28   29.90S
ALMA           CLEAR     45  31  59 SW10G18   29.76F
ANN ARBOR      CLEAR     45  29  53 S15G25    29.86F
BAD AXE        CLEAR     41  29  64 SW5       29.78S
CARO           CLEAR     45  30  56 S9        29.77S
DETROIT CITY   CLEAR    N/A N/A N/A S12       29.88S
DETROIT        MOCLDY    45  29  53 SW22G29   29.89F
FLINT          CLEAR     47  28  47 S13       29.80F
GROSSE ILE     CLEAR     44  30  57 SW17G26   29.90S
HILLSDALE      CLEAR     45  27  49 S16       29.86S
HOWELL         CLEAR     46  29  51 S13G21    29.81F

CITY           SKY/WX    TMP DP  RH WIND       PRES   REMARKS
JACKSON        CLEAR     47  28  47 S18G24    29.84S
LAMBERTVILLE   CLEAR     47  29  50 S14G23    29.91F
LANSING        CLEAR     47  30  51 SW17G28   29.79F
LAPEER         FAIR      45  28  52 S13G21    29.81S
MASON          CLEAR     48  30  49 S8        29.80F
MONROE         CLEAR     46  28  48 S13       29.90S
MT. CLEMENS    MOCLDY    44  31  60 S14       29.84F
PONTIAC        MOCLDY    44  29  55 S13G22    29.82F
PORT HOPE        N/A     42  30  62 VRB3      29.76F
PORT HURON     CLEAR     43  30  61 S13       29.84F
TRI CITIES     CLEAR     46  31  55 S13       29.76F
MIDLAND        FAIR      44  31  60 S6        29.75F
TROY           CLEAR     47  28  47 S15G21    29.87F
SAGINAW HB     CLEAR     43  32  65 S10       29.76F
$$
MIZ043>046-050>051-056>058-064>065-071>073-077>080-202300-
SOUTHWEST LOWER MICHIGAN

CITY           SKY/WX    TMP DP  RH WIND       PRES   REMARKS
BATTLE CREEK   CLEAR     47  30  51 S16G26    29.82F
BENTON HARBOR  CLEAR     50  30  46 S13G28    29.79F
BIG RAPIDS     CLEAR     43  32  63 S8G17     29.70F
COLDWATER      CLEAR     47  26  43 S10G20    29.85S
FREMONT        FAIR      45  34  66 S14G24    29.72F
HOLLAND        CLEAR     49  31  49 S17G31    29.75F
GRAND RAPIDS   MOCLDY    47  31  53 S13       29.76F
IONIA          FAIR      46  30  52 S12       29.76F
KALAMAZOO      CLEAR     48  28  46 S15       29.82F
LUDINGTON      CLOUDY    44  33  67 S13G21    29.67F
MARSHALL       CLEAR     48  28  45 S16G22    29.82F
MOUNT PLEASANT CLEAR     45  29  54 S6        29.73F
MUSKEGON       MOCLDY    48  35  60 S18G28    29.74F
SOUTH HAVEN    CLOUDY    51  30  45 S16G25    29.78F
$$
MIZ016>042-202300-
NORTHERN LOWER MICHIGAN

CITY           SKY/WX    TMP DP  RH WIND       PRES   REMARKS
ALPENA         CLOUDY    41  33  73 S7        29.70F
BEAVER ISLAND  PTCLDY    42  35  76 SE5       29.61F
BELLAIRE       CLEAR     41  36  80 S5        29.64F
CADILLAC       CLOUDY    41  33  73 S13G21    29.66F
CHARLEVOIX     PTCLDY    42  33  70 SE7       29.65F
FRANKFORT      CLEAR     46  34  64 S12G18    29.63S
GAYLORD        CLOUDY    38  31  76 S9        29.64F WCI  31
GRAYLING       CLOUDY    41  32  70 S8        29.67F
HARBOR SPRINGS PTCLDY    42  32  67 CALM      29.64F
MANISTEE       CLOUDY    44  34  67 S14       29.65F
OSCODA         CLEAR     40  29  65 SW10      29.73S WCI  33
PELLSTON       CLOUDY    41  32  70 S5        29.64F
ROGERS CITY    CLOUDY    38  32  77 CALM      29.68F
TRAVERSE CITY  CLOUDY    46  33  60 VRB6      29.63F
$$
MIZ007>008-015-202300-
EASTERN UPPER MICHIGAN

CITY           SKY/WX    TMP DP  RH WIND       PRES   REMARKS
KINROSS        CLOUDY    35  30  82 SE12      29.64F WCI  27
MACKINAC ISLAN PTCLDY    39  31  72 SE7       29.64F WCI  34
NEWBERRY       CLOUDY    38  37  96 S10       29.59S WCI  31
S. S. MARIE    CLOUDY    37  30  75 SE9       29.64F WCI  30
MUNISING         N/A     38  33  82 S12       29.50F WCI  30
$$
MIZ004>006-011>014-085-202300-
CENTRAL UPPER MICHIGAN

CITY           SKY/WX    TMP DP  RH WIND       PRES   REMARKS
MANISTIQUE     CLOUDY    42  37  82 S14G26    29.57F
ESCANABA       MOCLDY    40  33  76 S10G18    29.54F WCI  33
MENOMINEE      PTCLDY    41  33  73 S10       29.56F
SAWYER-GWINN   PTCLDY    36  30  80 S13       29.48F WCI  27
$$
MIZ001>003-009>011-084-202300-
WESTERN UPPER MICHIGAN

CITY           SKY/WX    TMP DP  RH WIND       PRES   REMARKS
IRON MOUNTAIN  CLOUDY    37  26  64 SE8       29.48F WCI  31
HOUGHTON       CLOUDY    33  27  78 E7        29.40F WCI  27
COPPER HARBOR    N/A     38  31  76 S7        29.41F WCI  33
IRONWOOD       CLOUDY    41  30  65 S13       29.38S
$$

ABBREVIATIONS USED IN REMARKS
   TC - TEMPERATURE IN CELSIUS
  WCI - WIND CHILL INDEX
   HX - HEAT INDEX
  VSB - VISIBILITY





USA.gov is the U.S. government's official web portal to all federal, state and local government web resources and services.